Terug naar catalogus

DELTA 1 DEB

ActiefPO
NORAD 1313·DEBRIS·🇺🇸 United States

Gelanceerd Jan 22, 1965 vanaf Cape Canaveral Space Force Station

Loading…

Volgende Passages (komende 24 uur)

TLE

VersSource: Space-Track

Epoch: Sep 14, 2026, 11:49 UTC

1 01313U 65004D   26257.49285928  .00000038  00000-0  66903-4 0  9991
2 01313  96.4230 156.1496 1174138 136.7057 233.2579 12.00868002697167

Volg DELTA 1 DEB in realtime met AllMySat

Download on the App Store